Weather Roundup
Issued by NWS Chicago, IL

Home | Current Version | Previous Version | Text Only | Print | Product List | Glossary Off
Versions: 1 2 3 4 5 6 7 8 9 10 11 12 13 14 15 16 17 18 19 20 21 22 23 24 25 26 27 28 29 30 31 32 33 34 35 36 37 38 39 40 41 42 43 44 45 46 47 48 49 50

539
NZUS59 KLOT 241703
HRRLOT

CHICAGO AREA WEATHER ROUNDUP
NATIONAL WEATHER SERVICE CHICAGO/ROMEOVILLE IL
1200 PM CDT TUE MAY 24 2016

NOTE: "FAIR" INDICATES FEW OR NO CLOUDS BELOW 12,000 FEET WITH NO
SIGNIFICANT WEATHER AND/OR OBSTRUCTIONS TO VISIBILITY.

* THESE STATIONS ARE NOT UNDER NWS QUALITY CONTROL. THEY ALSO MAY NOT
  REPORT WEATHER SUCH AS PRECIPITATION OR FOG.

ILZ005-006-012>014-019>023-241800-
NORTHEAST ILLINOIS

CITY           SKY/WX    TMP DP  RH WIND       PRES   REMARKS
OHARE          MOSUNNY   80  54  40 SW15      29.99S HX  80
MIDWAY         PTSUNNY   83  52  34 S16G23    29.99F HX  82
AURORA         SUNNY     83  56  39 SW16      29.99S HX  82
LANSING*       SUNNY     82  50  33 SW16G22   30.01S HX  80
WAUKEGAN       SUNNY     81  57  43 SW14G22   29.97S HX  81
DUPAGE AIRPORT SUNNY     81  55  40 SW17G23   29.98F HX  81
WHEELING       SUNNY     81  55  40 S15       30.00R HX  81
$$

WIZ051-052-058>065-066-070>072-241800-
SOUTHEAST WISCONSIN

CITY           SKY/WX    TMP DP  RH WIND       PRES   REMARKS
MILWAUKEE      MOSUNNY   81  56  42 S12       29.95F HX  81
KENOSHA*       SUNNY     82  58  43 S13       29.97S HX  82
RACINE*        SUNNY     82  55  39 SW13G22   29.97F HX  81
WAUKESHA       MOSUNNY   79  55  44 S16       29.96F
$$

INZ001>003-010>013-019-020-241800-
NORTHWEST INDIANA

CITY           SKY/WX    TMP DP  RH WIND       PRES   REMARKS
GARY*          MOSUNNY   82  59  44 SW12      30.01F HX  82
MICHIGAN CITY* NOT AVBL
RENSSELAER*    NOT AVBL
VALPARAISO     SUNNY     82  50  32 SW16G23   30.03F HX  81
$$

LMZ740>746-241800-
SOUTHERN LAKE MICHIGAN

STATION/POSITION TIME  SKY/WX   TEMP WIND        PRES    VSBY
                                AIR  DIR/SP/G
                 (UTC)          (F)  (DEG/KT/KT) (MB)    (MI)
HARRISON CRIB    1600            76  210/ 12/ 12   N/A
BURNHAM HARBOR   1700            80  240/  8/ 14   N/A
CALUMET HARBOR   1600            78  200/ 13/ 16 1015.3F
BURNS HARBOR     1600            71  240/ 10/ 14 1016.9S
MICHIGAN CITY    1600            71  270/  3/  5   N/A
$$

ABBREVIATIONS USED IN REMARKS
   TC - TEMPERATURE IN CELSIUS
  WCI - WIND CHILL INDEX
   HX - HEAT INDEX
  VSB - VISIBILITY
$$




USA.gov is the U.S. government's official web portal to all federal, state and local government web resources and services.